[[{"header":{"parameterUnit":"m.s-1","parameterCategory":1,"la1":30.2992,"la2":30.254,"lo1":-89.0895,"lo2":-89.0443,"dy":0.0025,"dx":0.0025,"nx":19,"ny":19,"refTime":"2026-03-11T21:00:00:Z","depth":0,"parameterNumber":2,"parameterNumberName":"U-component_of_WINDS"},"data":[0,0,0,-4.0567,-4.0572,-4.0803,-4.0804,-4.1146,-4.115,0,0,0,0,0,0,0,0,0,0,0,-4.0525,-4.0528,-4.0566,-4.0573,-4.0803,-4.0804,-4.1146,-4.115,0,0,0,0,0,0,0,0,0,0,0,-4.0523,-4.0527,-4.0531,-4.0574,-4.0803,-4.0804,-4.1145,-4.0955,0,0,0,0,0,0,0,0,0,0,-4.0723,-4.0709,-4.0526,-4.0531,-4.0575,-4.0803,-4.0804,-4.0945,-4.0967,-4.1061,0,-4.1151,0,-4.1156,-4.1176,-4.1177,0,0,0,-4.0554,-4.0691,-4.0729,-4.0532,-4.0578,-4.0803,-4.0694,-4.0956,-4.0981,-4.1091,-4.1155,-4.1166,-4.1161,-4.1178,-4.118,-4.1784,-4.1788,0,0,-4.0541,-4.0581,-4.0712,-4.0746,-4.0711,-4.0687,-4.0701,-4.0971,-4.1045,-4.1156,-4.1174,-4.1167,-4.1181,-4.1184,-4.1781,-4.1785,0,0,0,-4.0517,-4.0574,-4.0603,-4.0734,-4.0771,-4.0694,-4.0711,-4.1033,-4.1039,-4.1177,-4.1171,-4.1183,-4.1188,-4.1777,-4.1782,-4.2005,0,0,0,-4.0509,-4.0559,-4.0599,-4.0626,-4.0767,-4.0905,-4.0768,-4.102,-4.1049,-4.1169,-4.1183,-4.1191,-4.1772,-4.178,-4.199,-4.2106,0,0,0,-4.0501,-4.0558,-4.06,-4.0628,-4.0728,-4.0899,-4.092,-4.1025,-4.1047,-4.1177,-4.1192,-4.177,-4.1778,-4.1977,-4.2084,-4.2278,0,0,0,-4.0505,-4.0796,-4.0604,-4.0927,-4.0726,-4.1034,-4.0918,-4.1146,-4.1284,-4.1185,-4.1773,-4.1782,-4.1973,-4.207,-4.2264,-4.2451,-4.2531,0,0,-4.0895,-4.0845,-4.1031,-4.0866,-4.1218,-4.0995,-4.1381,-4.147,-4.1447,-4.1674,-4.1688,-4.1995,-4.2082,-4.2275,-4.2964,-4.3029,0,0,0,-4.1169,-4.1304,-4.1388,-4.152,-4.1593,-4.1667,-4.1692,-4.1725,-4.1915,-4.1571,-4.2115,-4.2166,-4.2277,-4.2365,-4.242,-4.2514,-4.1823,-4.1822,-4.1821,-4.1782,-4.1733,-4.2039,-4.2019,-4.2149,-4.2171,-4.2272,-4.2321,-4.2236,-4.2366,-4.2434,-4.2858,-4.2962,-4.3003,-4.3102,-4.2526,-4.2527,-4.2527,-4.2528,-4.2351,-4.2536,-4.2413,-4.2666,-4.2614,-4.2827,-4.286,-4.2792,-4.2984,-4.2802,-4.2898,-4.2707,-4.3075,-4.3159,-4.2544,-4.2542,-4.254,-4.2538,-4.2537,-4.275,-4.283,-4.2863,-4.3048,-4.3197,-4.3165,-4.3355,-4.33,-4.3251,-4.3345,-4.3413,-4.3409,-4.3401,-4.3381,-4.3382,-4.3384,-4.3385,-4.3386,-4.3387,-4.3153,-4.3182,-4.3347,-4.3448,-4.3525,-4.362,-4.3644,-4.3719,-4.3789,-4.3735,-4.3735,-4.364,-4.3118,-4.299,-4.341,-4.3406,-4.3403,-4.34,-4.3399,-4.3755,-4.3609,-4.3865,-4.3942,-4.4056,-4.4208,-4.4133,-4.4292,-4.4346,-4.4442,-4.4324,-4.3946,-4.3892,-4.3848,-4.3742,-4.4331,-4.4331,-4.4331,-4.4331,-4.4094,-4.4059,-4.4308,-4.4435,-4.4553,-4.4511,-4.4805,-4.4826,-4.4826,-4.4857,-4.4763,-4.4616,-4.4573,-4.4545,-4.4486,-4.4386,-4.5126,-4.5127,-4.5128,-4.4462,-4.4436,-4.4696,-4.469,-4.4774,-4.4848,-4.5123,-4.5276,-4.5245,-4.5159,-4.4881,-4.4847,-4.4609,-4.4534,-4.4446,-4.4355,-4.4171,0,0]},{"header":{"parameterUnit":"m.s-1","parameterCategory":1,"la1":30.2992,"la2":30.254,"lo1":-89.0895,"lo2":-89.0443,"dy":0.0025,"dx":0.0025,"nx":19,"ny":19,"refTime":"2026-03-11T21:00:00:Z","depth":0,"parameterNumber":3,"parameterNumberName":"V-component_of_WINDS"},"data":[0,0,0,-2.2885,-2.2886,-2.2932,-2.2933,-2.2985,-2.2986,0,0,0,0,0,0,0,0,0,0,0,-2.287,-2.287,-2.2885,-2.2886,-2.2932,-2.2933,-2.2985,-2.2986,0,0,0,0,0,0,0,0,0,0,0,-2.287,-2.287,-2.2871,-2.2886,-2.2932,-2.2933,-2.2985,-2.2952,0,0,0,0,0,0,0,0,0,0,-2.2908,-2.2893,-2.287,-2.2871,-2.2887,-2.2932,-2.2933,-2.295,-2.2954,-2.2962,0,-2.2971,0,-2.2979,-2.2989,-2.2989,0,0,0,-2.2887,-2.289,-2.2904,-2.2871,-2.2887,-2.2932,-2.2912,-2.2952,-2.2956,-2.2967,-2.2972,-2.2974,-2.298,-2.2989,-2.2989,-2.3037,-2.3037,0,0,-2.2884,-2.2877,-2.2901,-2.2907,-2.2902,-2.291,-2.2913,-2.2955,-2.2959,-2.2972,-2.2975,-2.2981,-2.299,-2.299,-2.3037,-2.3037,0,0,0,-2.2877,-2.2875,-2.2888,-2.2904,-2.2913,-2.2912,-2.2915,-2.2957,-2.2962,-2.2976,-2.2981,-2.299,-2.299,-2.3036,-2.3037,-2.3038,0,0,0,-2.2875,-2.2871,-2.2887,-2.2883,-2.2912,-2.2936,-2.2916,-2.2959,-2.2964,-2.2981,-2.299,-2.2991,-2.3036,-2.3037,-2.3038,-2.304,0,0,0,-2.2867,-2.287,-2.2876,-2.2883,-2.2903,-2.2936,-2.2943,-2.2961,-2.2968,-2.2989,-2.2991,-2.3036,-2.3037,-2.3038,-2.304,-2.3049,0,0,0,-2.2857,-2.2878,-2.2876,-2.2901,-2.2902,-2.2937,-2.2943,-2.297,-2.2988,-2.299,-2.3036,-2.3037,-2.3038,-2.3039,-2.3049,-2.3056,-2.3059,0,0,-2.2879,-2.288,-2.2896,-2.2895,-2.2929,-2.2931,-2.2964,-2.2988,-2.2996,-2.3022,-2.3023,-2.3038,-2.304,-2.3049,-2.3077,-2.3079,0,0,0,-2.29,-2.2911,-2.2921,-2.2939,-2.2958,-2.2973,-2.2992,-2.3,-2.3023,-2.3009,-2.3045,-2.3046,-2.3052,-2.3055,-2.3057,-2.3062,-2.3038,-2.3038,-2.3038,-2.2922,-2.2931,-2.2956,-2.2969,-2.2986,-2.3005,-2.3018,-2.3032,-2.3037,-2.3045,-2.3052,-2.3068,-2.3072,-2.3073,-2.3078,-2.3058,-2.3058,-2.3058,-2.3058,-2.2954,-2.297,-2.2974,-2.3,-2.3008,-2.3029,-2.3046,-2.3048,-2.3067,-2.3064,-2.3069,-2.3063,-2.3075,-2.308,-2.3058,-2.3058,-2.3058,-2.3058,-2.3058,-2.2968,-2.2977,-2.2987,-2.3011,-2.3028,-2.3041,-2.3058,-2.3066,-2.3072,-2.3078,-2.3085,-2.3085,-2.3085,-2.3081,-2.3081,-2.3081,-2.3081,-2.3081,-2.3081,-2.2979,-2.2989,-2.3004,-2.3024,-2.3034,-2.3049,-2.3066,-2.3076,-2.3088,-2.3092,-2.3092,-2.3094,-2.3075,-2.307,-2.3082,-2.3082,-2.3082,-2.3082,-2.3082,-2.3006,-2.3001,-2.3024,-2.3034,-2.3056,-2.3071,-2.308,-2.3099,-2.3108,-2.3116,-2.3117,-2.3102,-2.3103,-2.3102,-2.3097,-2.3116,-2.3116,-2.3116,-2.3116,-2.3017,-2.3019,-2.3042,-2.3058,-2.3075,-2.3084,-2.3106,-2.3118,-2.3129,-2.3135,-2.3133,-2.3128,-2.3126,-2.3128,-2.3126,-2.3122,-2.3147,-2.3147,-2.3147,-2.3034,-2.3037,-2.3056,-2.3068,-2.3084,-2.3098,-2.3118,-2.3134,-2.3146,-2.3148,-2.3139,-2.3137,-2.3129,-2.3126,-2.3128,-2.3125,-2.3117,0,0]}]]